This is the latest recevied weather packets stored in our database for station/object AD8BV. If no packets are shown the sender has not sent any weather packets the latest 10 day(s).
| Time | Temp. | Humidity | Pressure | Rain* | Wind** | Luminosity | Snow |
|---|---|---|---|---|---|---|---|
| 1777994086 | 10° C | 88% | 1009.1 hPa | 0 mm | - | 167 W/m² | - |
| 1777993783 | 10° C | 89% | 1009.2 hPa | 0 mm | - | 102 W/m² | - |
| 1777993480 | 10° C | 88% | 1009.2 hPa | 0 mm | - | 127 W/m² | - |
| 1777993179 | 10° C | 87% | 1009.2 hPa | 0 mm | - | 103 W/m² | - |
| 1777992878 | 10° C | 87% | 1008.9 hPa | 0 mm | - | 85 W/m² | - |
| 1777992576 | 10° C | 87% | 1009.1 hPa | 0 mm | - | 82 W/m² | - |
| 1777992273 | 10° C | 85% | 1009 hPa | 0 mm | - | 82 W/m² | - |
| 1777991970 | 10° C | 83% | 1009 hPa | 0 mm | - | 71 W/m² | - |
| 1777991668 | 10° C | 81% | 1008.8 hPa | 0 mm | - | 65 W/m² | - |
| 1777991365 | 10.56° C | 79% | 1008.7 hPa | 0 mm | - | 68 W/m² | - |
| 1777991062 | 10.56° C | 77% | 1008.6 hPa | 0 mm | - | 65 W/m² | - |
| 1777990759 | 11.11° C | 76% | 1008.8 hPa | 0 mm | - | 46 W/m² | - |
| 1777990456 | 11.11° C | 75% | 1008.2 hPa | 0 mm | - | 59 W/m² | - |
| 1777989850 | 11.11° C | 73% | 1007.8 hPa | 0 mm | - | 65 W/m² | - |
| 1777989547 | 11.11° C | 72% | 1007.9 hPa | 0 mm | - | 88 W/m² | - |
| 1777989243 | 11.11° C | 73% | 1007.9 hPa | 0 mm | - | 79 W/m² | - |
| 1777988939 | 11.67° C | 71% | 1007.9 hPa | 0 mm | - | 104 W/m² | - |
| 1777988636 | 11.67° C | 71% | 1007.8 hPa | 0 mm | - | 117 W/m² | - |
| 1777988333 | 11.67° C | 72% | 1007.9 hPa | 0 mm | - | 72 W/m² | - |
| 1777988030 | 11.67° C | 71% | 1007.7 hPa | 0 mm | - | 52 W/m² | - |
| 1777987725 | 11.67° C | 70% | 1007.8 hPa | 0 mm | - | 45 W/m² | - |
| 1777987423 | 11.67° C | 69% | 1007.7 hPa | 0 mm | - | 36 W/m² | - |
| 1777987120 | 12.22° C | 67% | 1007.4 hPa | 0 mm | - | 85 W/m² | - |
| 1777986817 | 12.22° C | 67% | 1007.2 hPa | 0 mm | - | 60 W/m² | - |
| 1777986515 | 12.22° C | 67% | 1007.1 hPa | 0 mm | - | 124 W/m² | - |
* Rain latest hour (hover to see other rain measurements)
** Current wind speed in m/s (hover to see current wind gust speed)